Hourly Data Report for August 02, 2003

SHERBROOKE A
QUEBEC

45°26'00.000" N
71°41'00.000" W
241.40 m
7028124
71610
YSC

Download Data

Hourly Data (August 2003)
Hourly Data Report for August 2, 2003
TIME
LST
Temp Definition
°C
Dew Point Definition
°C
Rel Hum Definition
%
Precip. Amount Definition
mm

Wind Dir Definition
10's deg

Wind Spd Definition
km/h
Visibility Definition
km
Stn Press Definition
kPa
Hmdx Definition


Wind Chill Definition


Weather Definition


00:00 15.6 13.2 86   5 6 15.0 98.99      
01:00 15.6 13.5 87   9 6 15.0 98.93      
02:00 15.5 13.5 88   7 4 15.0 98.93      
03:00 15.5 13.7 89     0 15.0 98.90      
04:00 15.4 13.8 90   8 6 15.0 98.88      
05:00 15.5 13.8 90   3 4 15.0 98.86      
06:00 16.0 14.1 88   6 7 15.0 98.91      
07:00 16.7 14.6 87     0 24.1 98.95     Cloudy
08:00 16.8 14.6 87   5 4 24.1 98.96     Cloudy
09:00 17.3 14.9 86   8 4 24.1 98.97     Cloudy
10:00 18.4 15.2 82   14 6 24.1 98.96     Cloudy
11:00 19.7 15.6 77   16 6 24.1 98.92     Cloudy
12:00 20.0 15.8 77     0 24.1 98.92     Cloudy
13:00 21.1 16.4 75     0 24.1 98.91 26   Cloudy
14:00 22.3 17.1 72     0 24.1 98.89 28   Cloudy
15:00 22.7 17.8 74     0 24.1 98.92 29   Cloudy
16:00 22.3 17.5 74     0 24.1 98.90 28   Cloudy
17:00 22.2 18.0 77     0 11.3 98.89 28    
18:00 21.6 18.6 83     0 15.0 98.89 28    
19:00 20.8 18.3 86     0 15.0 98.93 27    
20:00 20.0 17.8 87     0 15.0 98.95 26    
21:00 17.0 15.7 92     0 15.0 98.96      
22:00 16.0 15.1 94   9 4 1.9 98.93      
23:00 16.9 16.2 96   7 4 3.5 98.95      

Notes on Data Quality.

Legend

  • E = Estimated
  • M = Missing
  • NA = Not Available*
  • [empty] = Indicates an unobserved value
Date modified: